Time,TemperatureF,DewpointF,PressureIn,WindDirection,WindDirectionDegrees,WindSpeedMPH,WindSpeedGustMPH,Humidity,HourlyPrecipIn,Conditions,Clouds,dailyrainin,SoftwareType,DateUTC
2013-03-01 01:02:00,49.0,-99.9,-100.00,ESE,115,1.0,3.0,-999,-99.99,,,-99.99,,2013-03-01 09:02:00,
2013-03-01 01:12:00,49.0,-99.9,-100.00,ESE,115,1.0,3.0,-999,-99.99,,,-99.99,,2013-03-01 09:12:00,
2013-03-01 03:02:00,49.0,-99.9,-100.00,NW,315,1.0,5.0,-999,-99.99,,,-99.99,,2013-03-01 11:02:00,
2013-03-01 03:12:00,49.0,-99.9,-100.00,NW,315,1.0,5.0,-999,-99.99,,,-99.99,,2013-03-01 11:12:00,
2013-03-01 05:01:00,49.0,-99.9,-100.00,NNW,330,0.0,1.0,-999,-99.99,,,-99.99,,2013-03-01 13:01:00,
2013-03-01 05:12:00,49.0,-99.9,-100.00,NNW,330,0.0,1.0,-999,-99.99,,,-99.99,,2013-03-01 13:12:00,
2013-03-01 07:02:00,49.0,-99.9,-100.00,ESE,105,1.0,1.0,-999,-99.99,,,-99.99,,2013-03-01 15:02:00,
2013-03-01 07:11:00,49.0,-99.9,-100.00,ESE,105,1.0,1.0,-999,-99.99,,,-99.99,,2013-03-01 15:11:00,
2013-03-01 09:01:00,48.0,-99.9,-100.00,SE,135,1.0,2.0,-999,-99.99,,,-99.99,,2013-03-01 17:01:00,
2013-03-01 09:11:00,48.0,-99.9,-100.00,SE,135,1.0,2.0,-999,-99.99,,,-99.99,,2013-03-01 17:11:00,
2013-03-01 11:02:00,49.0,-99.9,-100.00,East,95,2.0,5.0,-999,-99.99,,,-99.99,,2013-03-01 19:02:00,
2013-03-01 11:11:00,49.0,-99.9,-100.00,East,95,2.0,5.0,-999,-99.99,,,-99.99,,2013-03-01 19:11:00,
2013-03-01 13:02:00,50.0,-99.9,-100.00,SE,125,1.0,5.0,-999,-99.99,,,-99.99,,2013-03-01 21:02:00,
2013-03-01 13:11:00,50.0,-99.9,-100.00,SE,125,1.0,5.0,-999,-99.99,,,-99.99,,2013-03-01 21:11:00,
2013-03-01 15:01:00,51.0,-99.9,-100.00,East,85,1.0,6.0,-999,-99.99,,,-99.99,,2013-03-01 23:01:00,
2013-03-01 15:11:00,51.0,-99.9,-100.00,East,85,1.0,6.0,-999,-99.99,,,-99.99,,2013-03-01 23:11:00,
2013-03-01 17:01:00,53.0,53.0,-100.00,ESE,110,2.0,3.0,100,-99.99,,,-99.99,,2013-03-02 01:01:00,
2013-03-01 17:11:00,53.0,53.0,-100.00,ESE,110,2.0,3.0,100,-99.99,,,-99.99,,2013-03-02 01:11:00,
2013-03-01 21:02:00,49.0,-99.9,-100.00,SE,125,0.0,1.0,-999,-99.99,,,-99.99,,2013-03-02 05:02:00,
2013-03-01 21:12:00,49.0,-99.9,-100.00,SE,125,0.0,1.0,-999,-99.99,,,-99.99,,2013-03-02 05:12:00,
2013-03-01 23:02:00,49.0,-99.9,-100.00,SE,125,3.0,5.0,-999,-99.99,,,-99.99,,2013-03-02 07:02:00,
2013-03-01 23:11:00,49.0,-99.9,-100.00,SE,125,3.0,5.0,-999,-99.99,,,-99.99,,2013-03-02 07:11:00,